GW5351 Weather Reports


Display with metric or nautical units.
time (UTC)temp
F
wind
direction
speed
MPH
gust
MPH
rain 1hr
in
rain 24hr
in
rain mn
in
humidity
%
barometer
mb
20260507013635 71 238 2.0 3.0 0.00 0.07 0.07 85 1011.5
20260507013132 71 231 3.0 4.0 0.00 0.07 0.07 85 1011.5
20260507012629 71 307 2.0 4.0 0.00 0.07 0.07 85 1011.4
20260507012124 71 238 2.0 6.0 0.00 0.07 0.07 86 1011.4
20260507011623 71 6 4.0 4.0 0.00 0.07 0.07 86 1011.4
20260507011119 71 328 2.0 7.0 0.00 0.07 0.07 85 1011.2
20260507010614 72 274 3.0 4.0 0.00 0.07 0.07 86 1011.1
20260507010110 72 14 4.0 8.0 0.00 0.07 0.07 85 1011.1
20260507005608 72 239 2.0 4.0 0.00 0.07 0.07 85 1011.0
20260507005103 72 315 2.0 3.0 0.00 0.07 0.07 86 1011.1
20260507004601 73 322 3.0 3.0 0.00 0.07 0.07 85 1010.9
20260507004058 73 34 1.0 3.0 0.00 0.07 0.07 85 1010.9
20260507003554 73 273 4.0 7.0 0.00 0.07 0.07 85 1010.9
20260507003049 73 249 3.0 4.0 0.00 0.07 0.07 85 1010.6
20260507002546 73 225 2.0 7.0 0.00 0.07 0.07 85 1010.5
20260507002042 73 285 2.0 3.0 0.00 0.07 0.07 85 1010.4
20260507001538 74 271 2.0 3.0 0.00 0.07 0.07 85 1010.4
20260507001036 74 300 2.0 4.0 0.00 0.07 0.07 85 1010.5
20260507000532 75 198 2.0 4.0 0.00 0.07 0.07 85 1010.3
20260507000027 75 330 2.0 6.0 0.00 0.07 0.07 85 1010.4
20260506235525 75 225 1.0 4.0 0.00 0.07 0.07 85 1010.3
20260506235021 76 261 3.0 8.0 0.00 0.07 0.07 85 1010.2
20260506234519 76 226 2.0 7.0 0.00 0.07 0.07 85 1010.2
20260506234015 77 221 1.0 6.0 0.00 0.07 0.07 85 1010.1
20260506233512 77 269 4.0 7.0 0.00 0.07 0.07 85 1010.1
20260506233009 78 19 1.0 4.0 0.00 0.07 0.07 85 1009.9
20260506232505 80 211 3.0 9.0 0.00 0.07 0.07 84 1009.7
20260506232001 84 233 0.0 1.0 0.00 0.07 0.07 85 1009.6
20260506231458 84 232 0.0 2.0 0.00 0.07 0.07 84 1009.4
20260506230956 84 240 0.0 2.0 0.00 0.07 0.07 84 1009.6
20260506230452 83 240 0.0 1.0 0.00 0.07 0.07 85 1009.2
20260506225948 83 239 0.0 1.0 0.00 0.07 0.07 85 1009.5
20260506225446 83 232 0.0 0.0 0.00 0.07 0.07 86 1009.7
20260506224943 83 232 0.0 1.0 0.00 0.07 0.07 85 1009.5
20260506224440 83 232 0.0 0.0 0.00 0.07 0.07 85 1009.5
20260506223936 83 232 0.0 2.0 0.00 0.07 0.07 85 1009.2
20260506223432 84 246 0.0 0.0 0.00 0.07 0.07 84 1009.4
20260506222929 84 246 0.0 0.0 0.00 0.07 0.07 84 1009.3
20260506222425 84 246 2.0 2.0 0.00 0.07 0.07 83 1009.2
20260506221923 84 246 0.0 0.0 0.00 0.07 0.07 82 1009.3
20260506221420 85 246 0.0 0.0 0.00 0.07 0.07 81 1009.2
20260506220918 84 246 0.0 1.0 0.00 0.07 0.07 80 1009.2
20260506220413 85 246 0.0 0.0 0.00 0.07 0.07 79 1009.2
20260506215909 85 246 0.0 0.0 0.00 0.07 0.07 80 1009.1
20260506215406 86 233 1.0 1.0 0.00 0.07 0.07 79 1009.2
20260506214902 86 253 1.0 2.0 0.00 0.07 0.07 78 1009.3
20260506214359 86 239 1.0 1.0 0.00 0.07 0.07 78 1009.5
20260506213857 85 236 1.0 1.0 0.00 0.07 0.07 79 1009.4
20260506213354 84 223 2.0 2.0 0.00 0.07 0.07 80 1009.3
20260506212851 85 236 1.0 2.0 0.00 0.07 0.07 81 1009.1
20260506212347 85 230 2.0 2.0 0.00 0.07 0.07 79 1009.3
20260506211842 86 201 0.0 1.0 0.00 0.07 0.07 78 1009.4
20260506211338 85 218 0.0 2.0 0.00 0.07 0.07 79 1009.3
20260506210836 87 222 1.0 1.0 0.00 0.07 0.07 77 1009.3
20260506210332 86 208 0.0 2.0 0.00 0.07 0.07 79 1009.3
20260506205830 86 224 0.0 2.0 0.00 0.07 0.07 79 1009.5
20260506205326 86 231 0.0 2.0 0.00 0.07 0.07 79 1009.5
20260506204822 87 230 1.0 1.0 0.00 0.07 0.07 76 1009.7
20260506204320 87 217 0.0 3.0 0.00 0.07 0.07 76 1009.5
20260506203817 86 227 0.0 1.0 0.00 0.07 0.07 79 1009.5
20260506203314 86 229 1.0 3.0 0.00 0.07 0.07 80 1009.6
20260506202811 84 284 1.0 2.0 0.00 0.07 0.07 82 1009.6
20260506202308 85 293 2.0 2.0 0.00 0.07 0.07 80 1009.8
20260506201804 84 209 0.0 2.0 0.00 0.07 0.07 83 1009.9
20260506201302 84 255 0.0 1.0 0.00 0.07 0.07 83 1009.7
20260506200759 84 331 3.0 3.0 0.00 0.07 0.07 84 1009.8
20260506200249 83 237 0.0 2.0 0.00 0.07 0.07 85 1010.0
20260506195746 82 220 0.0 1.0 0.00 0.07 0.07 87 1010.2
20260506195242 82 267 1.0 2.0 0.00 0.07 0.07 87 1010.1
20260506194740 82 229 1.0 2.0 0.00 0.07 0.07 85 1010.2
20260506194236 81 229 0.0 0.0 0.00 0.07 0.07 85 1010.3
20260506193734 82 229 0.0 1.0 0.00 0.07 0.07 86 1010.2
20260506193231 82 229 0.0 1.0 0.00 0.07 0.07 86 1010.2
20260506192727 83 226 0.0 2.0 0.00 0.07 0.07 86 1010.3
20260506192224 82 199 0.0 1.0 0.00 0.07 0.07 86 1010.4
20260506191721 83 202 0.0 0.0 0.00 0.07 0.07 85 1010.3
20260506191217 82 227 0.0 2.0 0.00 0.07 0.07 85 1010.5
20260506190714 82 204 0.0 1.0 0.00 0.07 0.07 89 1010.4
20260506190211 81 232 0.0 2.0 0.00 0.07 0.07 91 1010.4
20260506185708 80 219 0.0 0.0 0.00 0.07 0.07 94 1010.3
20260506185204 80 272 1.0 2.0 0.00 0.07 0.07 96 1010.5
20260506184702 79 205 0.0 2.0 0.00 0.07 0.07 97 1010.5
20260506184159 78 235 0.0 0.0 0.00 0.07 0.07 96 1010.6
20260506183655 78 210 0.0 0.0 0.00 0.07 0.07 96 1010.9
20260506183151 78 224 0.0 0.0 0.17 0.07 0.07 96 1010.9
20260506182649 78 203 0.0 0.0 0.24 0.07 0.07 95 1011.0
20260506182145 78 202 0.0 0.0 0.19 0.04 0.04 95 1010.9
20260506181643 78 201 0.0 0.0 0.12 0.03 0.03 94 1011.0
20260506181140 79 201 0.0 0.0 0.00 0.01 0.01 93 1011.3
20260506180638 79 213 0.0 1.0 0.00 0.01 0.01 92 1011.4
20260506180134 80 232 0.0 0.0 0.00 0.01 0.01 92 1011.4
20260506175631 80 226 0.0 0.0 0.05 0.01 0.01 90 1011.4
20260506175126 81 227 0.0 0.0 0.05 0.01 0.01 89 1011.6
20260506174625 81 227 0.0 0.0 0.00 0.00 0.00 88 1011.6
20260506174121 82 227 0.0 0.0 0.00 0.00 0.00 86 1011.7
20260506173619 82 227 0.0 0.0 0.00 0.00 0.00 85 1011.8
20260506173115 82 227 0.0 0.0 0.00 0.00 0.00 83 1011.8
20260506172613 82 227 0.0 0.0 0.00 0.00 0.00 84 1011.8
20260506172109 82 227 0.0 0.0 0.00 0.00 0.00 83 1011.8
20260506171607 83 227 0.0 0.0 0.00 0.00 0.00 84 1011.9
20260506171104 82 227 0.0 0.0 0.00 0.00 0.00 83 1012.1
20260506170601 82 227 0.0 0.0 0.00 0.00 0.00 84 1011.9
20260506170053 82 222 0.0 0.0 0.00 0.00 0.00 85 1012.1
20260506165551 81 220 0.0 0.0 0.00 0.00 0.00 85 1012.0
20260506165047 81 219 0.0 0.0 0.00 0.00 0.00 85 1011.9
20260506164544 81 199 0.0 0.0 0.00 0.00 0.00 85 1012.1
20260506164041 81 222 0.0 3.0 0.00 0.00 0.00 85 1012.1
20260506163537 81 232 1.0 2.0 0.00 0.00 0.00 86 1011.8
20260506163033 81 199 0.0 1.0 0.00 0.00 0.00 86 1011.8
20260506162529 81 192 1.0 2.0 0.00 0.00 0.00 86 1011.7
20260506162021 81 233 1.0 1.0 0.00 0.00 0.00 86 1011.7
20260506161518 81 199 0.0 1.0 0.00 0.00 0.00 87 1011.7
20260506161015 80 195 0.0 2.0 0.00 0.00 0.00 88 1011.7
20260506160513 80 223 0.0 1.0 0.00 0.00 0.00 87 1011.7
20260506160011 80 241 0.0 0.0 0.00 0.00 0.00 87 1011.5
20260506155509 80 208 0.0 1.0 0.00 0.00 0.00 87 1011.4
20260506153645 80 234 0.0 0.0 0.00 0.00 0.00 87 1011.3
20260506153142 80 207 0.0 0.0 0.00 0.00 0.00 87 1011.2
20260506152639 80 220 0.0 0.0 0.00 0.00 0.00 87 1011.2
20260506152137 80 220 0.0 1.0 0.00 0.00 0.00 88 1011.4
20260506151636 80 196 0.0 0.0 0.00 0.00 0.00 87 1011.4
20260506151132 80 197 0.0 2.0 0.00 0.00 0.00 88 1011.5
20260506150629 80 203 0.0 1.0 0.00 0.00 0.00 88 1011.2
20260506150127 79 226 1.0 1.0 0.00 0.00 0.00 90 1011.2
20260506145624 79 160 1.0 2.0 0.00 0.00 0.00 90 1011.0
20260506145120 79 224 0.0 0.0 0.00 0.00 0.00 90 1011.2
20260506144617 79 226 0.0 0.0 0.00 0.00 0.00 90 1011.1
20260506144114 79 244 1.0 3.0 0.00 0.00 0.00 90 1011.0
20260506143612 79 238 0.0 2.0 0.00 0.00 0.00 90 1011.0
20260506143110 79 231 0.0 0.0 0.00 0.00 0.00 89 1010.7
20260506142608 79 212 1.0 1.0 0.00 0.00 0.00 89 1010.8
20260506142106 79 212 0.0 2.0 0.00 0.00 0.00 89 1010.7
20260506141603 79 178 2.0 3.0 0.00 0.00 0.00 89 1010.7
20260506141102 79 207 0.0 1.0 0.00 0.00 0.00 90 1010.8
20260506140558 79 261 1.0 2.0 0.00 0.00 0.00 90 1010.8
20260506140056 79 185 1.0 2.0 0.00 0.00 0.00 90 1010.8
20260506135552 78 206 1.0 2.0 0.00 0.00 0.00 90 1010.8
20260506135048 78 220 0.0 1.0 0.00 0.00 0.00 91 1010.8
20260506134545 78 208 0.0 1.0 0.00 0.00 0.00 92 1010.8
20260506134041 77 205 1.0 1.0 0.00 0.00 0.00 93 1010.9
20260506133538 77 204 2.0 2.0 0.00 0.00 0.00 93 1011.1
20260506133035 77 204 0.0 0.0 0.00 0.00 0.00 94 1011.1
20260506132532 77 195 0.0 0.0 0.00 0.00 0.00 94 1011.2
20260506132029 76 196 0.0 0.0 0.00 0.00 0.00 95 1011.2
20260506131526 76 196 0.0 0.0 0.00 0.00 0.00 95 1011.1
20260506131023 76 196 0.0 0.0 0.00 0.00 0.00 95 1011.1
20260506130520 76 196 0.0 0.0 0.00 0.00 0.00 95 1011.2
20260506130018 76 197 0.0 0.0 0.00 0.00 0.00 96 1011.2
20260506125516 75 197 0.0 0.0 0.00 0.00 0.00 96 1010.9
20260506125013 75 196 0.0 1.0 0.00 0.00 0.00 96 1010.8
20260506124511 75 196 0.0 0.0 0.00 0.00 0.00 96 1010.9
20260506124009 75 197 0.0 0.0 0.00 0.00 0.00 96 1010.7
20260506123506 75 197 0.0 0.0 0.00 0.00 0.00 96 1010.8
20260506123004 75 197 0.0 0.0 0.00 0.00 0.00 96 1010.7
20260506122500 75 197 0.0 0.0 0.00 0.00 0.00 96 1010.7
20260506121959 75 199 0.0 0.0 0.00 0.00 0.00 96 1010.6
20260506121455 75 211 0.0 0.0 0.00 0.00 0.00 96 1010.7
20260506120952 75 201 0.0 2.0 0.00 0.00 0.00 96 1010.5
20260506120450 75 220 0.0 0.0 0.00 0.00 0.00 96 1010.7
20260506115947 75 200 0.0 0.0 0.00 0.00 0.00 96 1010.6
20260506115445 75 203 1.0 1.0 0.00 0.00 0.00 97 1010.5
20260506114943 74 280 0.0 1.0 0.00 0.00 0.00 97 1010.4
20260506114440 75 203 0.0 0.0 0.00 0.00 0.00 97 1010.3
20260506113939 75 204 0.0 1.0 0.00 0.00 0.00 97 1010.4
20260506113436 74 219 0.0 0.0 0.00 0.00 0.00 97 1010.5
20260506112932 74 219 0.0 0.0 0.00 0.00 0.00 97 1010.2
20260506112430 74 219 0.0 0.0 0.00 0.00 0.00 96 1010.3
20260506111927 74 219 0.0 0.0 0.00 0.00 0.00 96 1010.3
20260506111425 74 219 0.0 0.0 0.00 0.00 0.00 96 1010.2
20260506110922 74 219 0.0 0.0 0.00 0.00 0.00 96 1010.2
20260506110420 74 219 0.0 0.0 0.00 0.00 0.00 96 1010.0
20260506105916 75 204 0.0 0.0 0.00 0.00 0.00 96 1009.7
20260506105412 75 196 0.0 1.0 0.00 0.00 0.00 96 1009.7
20260506104909 75 191 0.0 2.0 0.00 0.00 0.00 95 1009.7
20260506104408 75 213 1.0 2.0 0.00 0.00 0.00 95 1009.4
20260506103905 75 217 1.0 3.0 0.00 0.00 0.00 95 1009.5
20260506103402 75 255 3.0 6.0 0.00 0.00 0.00 95 1009.4
20260506102859 75 208 2.0 3.0 0.00 0.00 0.00 95 1009.4
20260506102357 75 228 1.0 2.0 0.00 0.00 0.00 95 1009.4
20260506101854 75 180 2.0 3.0 0.00 0.00 0.00 94 1009.4
20260506101350 75 224 2.0 3.0 0.00 0.00 0.00 94 1009.5
20260506100848 75 211 2.0 3.0 0.00 0.00 0.00 94 1009.4
20260506100346 76 219 1.0 8.0 0.00 0.00 0.00 94 1009.6
20260506095844 76 225 2.0 7.0 0.00 0.00 0.00 93 1009.5
20260506095341 76 249 4.0 9.0 0.00 0.00 0.00 94 1009.4
20260506094838 76 163 3.0 7.0 0.00 0.00 0.00 94 1009.3
20260506094337 76 173 2.0 8.0 0.00 0.00 0.00 94 1009.3
20260506093834 76 208 0.0 3.0 0.00 0.00 0.00 95 1009.2
20260506093331 76 182 1.0 2.0 0.00 0.00 0.00 95 1009.1
20260506092829 76 170 1.0 2.0 0.00 0.00 0.00 95 1009.0
20260506092327 76 184 2.0 3.0 0.00 0.00 0.00 95 1009.0
20260506091823 76 180 2.0 2.0 0.00 0.00 0.00 95 1009.2
20260506091321 76 158 2.0 3.0 0.00 0.00 0.00 95 1009.2
20260506090819 76 198 2.0 4.0 0.00 0.00 0.00 95 1009.2
20260506090316 76 229 1.0 2.0 0.00 0.00 0.00 95 1009.1
20260506085812 76 241 3.0 4.0 0.00 0.00 0.00 95 1009.0
20260506085308 76 246 1.0 3.0 0.00 0.00 0.00 94 1009.2
20260506084805 76 230 2.0 3.0 0.00 0.00 0.00 94 1009.2
20260506084302 76 195 3.0 4.0 0.00 0.00 0.00 94 1009.0
20260506083759 76 167 2.0 6.0 0.00 0.00 0.00 94 1009.1
20260506083256 76 217 2.0 3.0 0.00 0.00 0.00 94 1009.2
20260506082754 76 225 1.0 4.0 0.00 0.00 0.00 94 1009.2
20260506082249 76 206 2.0 3.0 0.00 0.00 0.00 94 1009.4
20260506081747 76 227 1.0 3.0 0.00 0.00 0.00 94 1009.1
20260506081244 76 223 1.0 4.0 0.00 0.00 0.00 94 1009.3
20260506080742 76 227 2.0 6.0 0.00 0.00 0.00 94 1009.4
20260506080238 76 224 2.0 3.0 0.00 0.00 0.00 94 1009.5
20260506073222 76 213 2.0 3.0 0.00 0.00 0.00 93 1009.7
20260506072719 76 156 2.0 4.0 0.00 0.00 0.00 93 1010.0
20260506072217 76 167 1.0 2.0 0.00 0.00 0.00 93 1009.9
20260506071714 76 202 1.0 6.0 0.00 0.00 0.00 93 1010.2
20260506071212 76 196 1.0 3.0 0.00 0.00 0.00 93 1010.2
20260506070709 77 222 1.0 2.0 0.00 0.00 0.00 93 1010.3
20260506070206 76 191 1.0 2.0 0.00 0.00 0.00 93 1010.3
20260506062143 77 248 3.0 6.0 0.00 0.00 0.00 92 1010.3
20260506061638 77 212 1.0 7.0 0.00 0.00 0.00 92 1010.1
20260506061136 77 247 2.0 4.0 0.00 0.00 0.00 92 1010.2
20260506060635 77 187 3.0 6.0 0.00 0.00 0.00 92 1010.3
20260506060131 77 217 1.0 6.0 0.00 0.00 0.00 92 1010.3
20260506051103 77 224 2.0 3.0 0.00 0.00 0.00 91 1009.9
20260506050601 77 166 5.0 8.0 0.00 0.00 0.00 90 1009.9
20260506045051 77 225 2.0 4.0 0.00 0.00 0.00 89 1010.1
20260506044550 77 189 2.0 3.0 0.00 0.00 0.00 89 1010.1
20260506044046 77 156 3.0 4.0 0.00 0.00 0.00 89 1010.2
20260506043543 77 221 1.0 9.0 0.00 0.00 0.00 89 1009.9
20260506043042 77 235 2.0 8.0 0.00 0.00 0.00 89 1010.0
20260506042540 78 196 2.0 7.0 0.00 0.00 0.00 89 1010.1
20260506042038 78 191 1.0 4.0 0.00 0.00 0.00 89 1010.2
20260506041536 78 239 2.0 4.0 0.00 0.00 0.00 89 1010.1
20260506041033 78 232 1.0 3.0 0.00 0.00 0.00 89 1010.2
20260506040531 78 208 1.0 4.0 0.00 0.00 0.00 89 1010.2
20260506040026 78 217 2.0 4.0 0.00 0.00 0.00 89 1009.8
20260506035523 78 227 3.0 4.0 0.00 0.00 0.00 89 1009.8
20260506035020 78 163 4.0 7.0 0.00 0.00 0.00 88 1009.9
20260506034518 78 153 2.0 4.0 0.00 0.00 0.00 88 1009.7
20260506034014 78 232 2.0 4.0 0.00 0.00 0.00 88 1009.7
20260506033512 78 145 4.0 7.0 0.00 0.00 0.00 88 1009.7
20260506033009 78 198 1.0 4.0 0.00 0.00 0.00 88 1009.7
20260506032506 78 168 1.0 3.0 0.00 0.00 0.00 88 1009.7
20260506032002 78 227 1.0 2.0 0.00 0.00 0.00 88 1009.7
20260506031500 78 210 0.0 1.0 0.00 0.00 0.00 88 1009.5
20260506030957 78 200 1.0 2.0 0.00 0.00 0.00 87 1009.7
20260506030455 78 181 2.0 3.0 0.00 0.00 0.00 87 1009.5
20260506025952 78 199 0.0 3.0 0.00 0.00 0.00 87 1009.5
20260506025449 78 208 0.0 3.0 0.00 0.00 0.00 87 1009.4
20260506024945 78 212 0.0 4.0 0.00 0.00 0.00 87 1009.3
20260506024442 78 228 1.0 1.0 0.00 0.00 0.00 86 1009.2
20260506023938 78 229 2.0 3.0 0.00 0.00 0.00 86 1009.3
20260506023435 78 216 0.0 3.0 0.00 0.00 0.00 86 1009.0
20260506022931 78 218 1.0 4.0 0.00 0.00 0.00 86 1008.8
20260506022429 78 210 1.0 4.0 0.00 0.00 0.00 86 1008.7
20260506021927 78 208 2.0 3.0 0.00 0.00 0.00 86 1008.8
20260506021424 79 213 1.0 2.0 0.00 0.00 0.00 85 1008.7
20260506020921 79 203 0.0 2.0 0.00 0.00 0.00 85 1008.7
20260506020419 79 164 4.0 7.0 0.00 0.00 0.00 84 1008.6
20260506015916 79 152 2.0 4.0 0.00 0.00 0.00 84 1008.5
20260506015413 79 195 2.0 3.0 0.00 0.00 0.00 84 1008.4
20260506014910 79 193 1.0 3.0 0.00 0.00 0.00 84 1008.4
20260506014407 79 156 5.0 7.0 0.00 0.00 0.00 84 1008.4